Regional Weather Roundup
Issued by NWS

Home | Current Version | Previous Version | Graphics & Text | Print | Product List | Glossary On
Versions: 1 2 3 4 5 6 7 8 9 10 11 12 13 14 15 16 17 18 19 20 21 22 23 24 25 26 27 28
000
ASUS45 KBOU 221307
RWRCO

WEATHER ROUNDUP FOR COLORADO
NATIONAL WEATHER SERVICE DENVER/BOULDER CO
700 AM MDT SUN OCT 22 2017

NOTE: "FAIR" INDICATES FEW OR NO CLOUDS BELOW 12000 FEET WITH NO
SIGNIFICANT WEATHER AND/OR OBSTRUCTIONS TO VISIBILITY.

COZ001>005-013-030-031-221400-
...NORTHWEST COLORADO...

CITY           SKY/WX    TMP DP  RH WIND       PRES   REMARKS
CRAIG          FAIR      27  22  81 CALM      30.39R
HAYDEN         CLOUDY    32  24  72 E7        30.39S WCI  26
MEEKER         FAIR      28  22  78 NE3       30.40S
RABBIT EARS PA CLOUDY    21  18  86 W12G21    30.37R WCI   9
STEAMBOAT SPGS CLOUDY    29  24  81 E3        30.39R
WALDEN         NOT AVBL
$$

COZ006>008-011-221400-
...WEST CENTRAL VALLEYS...

CITY           SKY/WX    TMP DP  RH WIND       PRES   REMARKS
GRAND JUNCTION FAIR      33  16  49 E9        30.40R WCI  25
MONTROSE       FAIR      28  17  63 S7        30.44S WCI  21
EAGLE          FAIR      22  19  89 CALM      30.47R
RIFLE          FAIR      27  23  85 CALM      30.45R
DELTA          FAIR      32  15  49 NE5       30.43S WCI  27
NUCLA          FAIR      28  10  47 N3        30.45R
$$

COZ017>023-064>068-221400-
...SOUTHWEST COLORADO...

CITY           SKY/WX    TMP DP  RH WIND       PRES   REMARKS
DURANGO        FAIR      25   9  50 CALM      30.37S
CORTEZ         FAIR      25  11  55 NE7       30.40R WCI  17
PAGOSA SPRINGS FAIR      26   7  44 CALM      30.39R
TELLURIDE      FAIR      30  16  56 SE5       30.47S WCI  25
WOLF CREEK PAS FAIR      30  14  51 W3        30.52R
$$

COZ009-010-012-014-032>034-037-058>063-221400-
...CENTRAL COLORADO...

CITY           SKY/WX    TMP DP  RH WIND       PRES   REMARKS
ASPEN          FAIR      22  17  81 W6        30.43R WCI  14
BUENA VISTA    FAIR      36  13  38 NW13G18   30.31S
COPPER MTN     CLOUDY    27  19  74 MISG      30.42R
BERTHOUD PASS  CLOUDY    14   5  67 NW41G52   30.29S WCI -10
COTTONWOOD PAS FAIR      36  18  48 N9        30.33F
GUNNISON       NOT AVBL
KREMMLING      CLOUDY    32  25  74 CALM      30.41R
LEADVILLE      FAIR      19  11  70 VRB6      30.40R WCI  11
MONARCH PASS   FAIR      18   7  62 W52       30.45F WCI  -6
SALIDA         FAIR      41  10  28 W9        30.38R
SUNLIGHT       FAIR      21  12  68 W9        30.49R WCI  11
WILKERSON PASS FAIR      27  14  59 W10G17    30.37R WCI  17
$$

COZ069>075-221400-
...SAN LUIS VALLEY/SANGRE DE CRISTO MOUNTAINS...

CITY           SKY/WX    TMP DP  RH WIND       PRES   REMARKS
ALAMOSA        FAIR      18  10  71 SW7       30.40R WCI   9
DEL NORTE      FAIR      21   5  51 W9        30.41R WCI  10
LA VETA PASS   FAIR      30   9  40 SW38G47   30.44R WCI  14
SAGUACHE       FAIR      32  12  43 CALM      30.40S
$$

COZ035-036-038>040-221400-
...NORTHERN COLORADO FRONT RANGE...

CITY           SKY/WX    TMP DP  RH WIND       PRES   REMARKS
DENVER INTL AP FAIR      38  16  40 SW12      30.14S
DMNS CITY PARK   N/A     37  17  45 SE9       30.15R
AURORA         PTCLDY    38  16  41 S10       30.16R
FRONT RANGE AP FAIR      43  19  39 S10       30.15R
ERIE MUNI ARPT FAIR      31  22  70 N3        30.19S
BOULDER MUN AP FAIR      34  23  64 N3        30.14R
CENTENNIAL     MOCLDY    39  14  36 SE7       30.16S
BROOMFIELD     PTCLDY    41  16  36 CALM      30.15R
FORT COLLINS   FAIR      30  23  75 NE3       30.15S
LONGMONT       FAIR      30  23  74 CALM      30.17R HAZE
$$

COZ041-046-047-076>085-087-088-221400-
...PIKES PEAK/PALMER DIVIDE AND SOUTHERN FOOTHILLS...

CITY           SKY/WX    TMP DP  RH WIND       PRES   REMARKS
COLO. SPRINGS  FAIR      29  13  51 NE5       30.23S WCI  24
A. F. ACADEMY  FAIR      25  11  54 CALM      30.22S
SCHRIEVER AFB  FAIR      33  10  38 CALM      30.23F
CHEYENNE MTN   FAIR      36   8  31 CALM      30.16F
ELLICOTT         N/A    N/A N/A N/A CALM      30.22S
FALCON         FAIR      29   9  43 W5        30.24S WCI  24
FORT CARSON    FAIR      29  13  51 N7        30.21S WCI  22
LIMON          FAIR      33  14  45 S6        30.21S WCI  28
MONUMENT HILL  FAIR      32  14  47 S8        30.22R WCI  25
CANON CITY     FAIR      45  18  33 W16       30.19S
WALSENBURG     NOT AVBL
TRINIDAD       FAIR      30  22  72 W7        30.24F WCI  23
$$

COZ042>045-048>051-090-091-221400-
...NORTHEAST COLORADO...

CITY           SKY/WX    TMP DP  RH WIND       PRES   REMARKS
GREELEY ARPT   FAIR      26  20  77 CALM      30.16R
AKRON          FAIR      40  14  34 SW14      30.16R
BURLINGTON     FAIR      34  20  56 W13       30.21R WCI  25
WRAY           FAIR      32  23  69 W8        30.17S WCI  25
YUMA           NOT AVBL
STERLING       FAIR      25  19  80 SW5       30.16R WCI  19
HOLYOKE        FAIR      34  25  69 SW6       30.16R WCI  29
FORT MORGAN    FAIR      32  15  49 CALM      30.16R
$$

COZ086-089-092>099-221400-
...SOUTHEAST COLORADO...

CITY           SKY/WX    TMP DP  RH WIND       PRES   REMARKS
PUEBLO         FAIR      27  18  69 NW7       30.21F WCI  19
LA JUNTA       FAIR      30  18  60 CALM      30.23F
LAMAR          FAIR      22  16  78 SW5       30.22F WCI  16
SPRINGFIELD      N/A     27  19  72 SW7       30.25S WCI  19
$$




USA.gov is the U.S. government's official web portal to all federal, state and local government web resources and services.